Location: Oso Ridge
(35.0450°N, 108.0864°W)
Time: 12:13:12
(UTC-06:00)

Amateur Radio Satellites - All Passes

Search period start: 22 September 2014 11:43
Search period end: 23 September 2014 11:43
Location: Oso Ridge, 35.0450°N, 108.0864°W

Satellite Date Start Highest point End Downlink Frequencies (MHz)
Time Altitude Azimuth
PCSat 22 Sep 11:55:33 12:00:57 88° 115° (ESE) 12:06:24 145.825 MHz
FUNcube-1 22 Sep 12:34:48 12:38:12 21° 292° (WNW) 12:41:33 145.950 - 145.970 MHz USB
Oscar 19 22 Sep 13:01:25 13:05:18 22° 67° (ENE) 13:09:11 437.125 CW, 437.150 USB
JAS-1B 22 Sep 13:06:23 13:12:17 22° 65° (ENE) 13:17:33 435.800 - 435.900 CW/SSB
Sapphire 22 Sep 13:13:44 13:17:56 23° 307° (NW) 13:22:10 437.095 MHz 1200 baud AX-25 AFSK
RS-15 22 Sep 13:23:41 13:34:50 69° 58° (ENE) 13:46:26 29.354 - 29.394 USB, Beacon 29.352 USB
AO-27 22 Sep 13:28:08 13:31:17 17° 65° (ENE) 13:34:27 436.795 MHz FM
AO-Echo 22 Sep 13:29:34 13:32:35 17° 67° (ENE) 13:35:36 ?
Oscar 16 22 Sep 13:39:24 13:44:26 53° 73° (ENE) 13:49:29 437.025 USB, Beacon 2401.1428
PCSat 22 Sep 13:42:38 13:45:05 13° 313° (NW) 13:47:32 145.825 MHz
ITAMSAT 1 22 Sep 14:29:18 14:34:24 66° 74° (ENE) 14:39:32 435.822 SSB
Uribyol 2 22 Sep 14:32:37 14:37:46 77° 75° (ENE) 14:42:57 436.500 FM
Gurwin Techsat 1B 22 Sep 14:36:37 14:41:23 36° 70° (ENE) 14:46:11 435.225 FM
Oscar 19 22 Sep 14:39:30 14:44:20 39° 261° (W) 14:49:12 437.125 CW, 437.150 USB
JAS-1B 22 Sep 14:53:46 15:02:27 68° 257° (WSW) 15:09:42 435.800 - 435.900 CW/SSB
AO-27 22 Sep 15:05:18 15:10:19 53° 260° (W) 15:15:23 436.795 MHz FM
AO-Echo 22 Sep 15:06:34 15:11:01 41° 261° (W) 15:15:28 ?
TMSAT-1 22 Sep 15:11:07 15:16:16 56° 73° (ENE) 15:21:26 436.925 FM
AO-7 22 Sep 15:17:41 15:24:10 26° 59° (ENE) 15:30:39 29.400 - 29.500 MHz
Oscar 16 22 Sep 15:21:05 15:24:03 15° 267° (W) 15:27:02 437.025 USB, Beacon 2401.1428
RS-15 22 Sep 15:37:16 15:46:19 29° 256° (WSW) 15:55:42 29.354 - 29.394 USB, Beacon 29.352 USB
ITAMSAT 1 22 Sep 16:12:27 16:14:18 12° 268° (W) 16:16:09 435.822 SSB
Gurwin Techsat 1B 22 Sep 16:17:09 16:21:22 24° 265° (W) 16:25:37 435.225 FM
Uosat F 22 Sep 16:19:05 16:23:45 41° 71° (ENE) 16:28:26 435.120 FM
Saudisat 1A 22 Sep 16:40:05 16:44:27 82° 119° (ESE) 16:48:53 436.775 MHz
TMSAT-1 22 Sep 16:53:34 16:56:29 15° 268° (W) 16:59:24 436.925 FM
AO-7 22 Sep 17:08:05 17:16:18 64° 256° (WSW) 17:24:33 29.400 - 29.500 MHz
MaSat-1 22 Sep 17:11:04 17:13:33 18° 56° (NE) 17:15:49 437.345 MHz
JAS-2 22 Sep 17:22:49 17:26:54 24° 68° (ENE) 17:30:59 435.800 - 435.900 CW/SSB, 435.910 FM
KITSAT 1 22 Sep 17:27:17 17:31:20 15° 101° (E) 17:35:22 435.175 FM
OPAL 22 Sep 17:35:20 17:40:09 40° 101° (E) 17:44:53 ?
Uosat F 22 Sep 17:59:15 18:02:39 18° 266° (W) 18:06:05 435.120 FM
Saudisat 1A 22 Sep 18:23:24 18:24:36 11° 315° (NW) 18:25:47 436.775 MHz
Hamsat 22 Sep 18:30:18 18:34:39 76° 259° (WSW) 18:39:01 145.90 MHz
MaSat-1 22 Sep 18:47:42 18:50:05 18° 257° (WSW) 18:52:14 437.345 MHz
JAS-2 22 Sep 19:07:12 19:11:52 32° 262° (W) 19:16:29 435.800 - 435.900 CW/SSB, 435.910 FM
OPAL 22 Sep 19:14:54 19:18:43 21° 296° (WNW) 19:22:29 ?
SO-67 22 Sep 19:16:54 19:20:09 40° 75° (ENE) 19:23:25 435.3500 MHz FM
KITSAT 1 22 Sep 19:17:29 19:25:35 89° 116° (ESE) 19:33:43 435.175 FM
STRAND 1 22 Sep 20:00:09 20:05:18 78° 103° (ESE) 20:10:26 ?
HO-68 22 Sep 20:05:59 20:11:14 23° 61° (ENE) 20:16:28 435.675 MHz FM
Sapphire 22 Sep 20:21:06 20:25:03 20° 52° (NE) 20:28:59 437.095 MHz 1200 baud AX-25 AFSK
PCSat 22 Sep 20:47:04 20:52:01 35° 57° (ENE) 20:56:56 145.825 MHz
KITSAT 1 22 Sep 21:16:18 21:22:02 21° 317° (NW) 21:27:48 435.175 FM
SO-50 22 Sep 21:16:50 21:20:54 36° 113° (ESE) 21:25:04 436.795 FM
STRAND 1 22 Sep 21:42:18 21:43:47 11° 298° (WNW) 21:45:15 ?
HO-68 22 Sep 21:51:17 21:58:19 63° 257° (WSW) 22:05:24 435.675 MHz FM
Oscar 11 22 Sep 21:51:24 21:55:34 45° 74° (ENE) 21:59:45 145.825 FM, Beacon 2401.500 USB
FUNcube-1 22 Sep 21:51:59 21:55:01 18° 68° (ENE) 21:58:06 145.950 - 145.970 MHz USB
Sapphire 22 Sep 22:03:30 22:08:47 53° 248° (WSW) 22:14:01 437.095 MHz 1200 baud AX-25 AFSK
UKube-1 22 Sep 22:11:32 22:15:50 69° 258° (WSW) 22:20:10 145.840 MHz, 145.915 MHz
Oscar 10/S400 22 Sep 22:14:11 22:47:15 69° 193° (SSW) 08:29:59 145.825 - 145.975 CW/USB, Beacon 145.810 USB
PCSat 22 Sep 22:30:45 22:35:15 27° 253° (WSW) 22:39:44 145.825 MHz
ZACube-1 22 Sep 22:33:37 22:37:55 55° 74° (ENE) 22:42:20 437.345 MHz
UOSAT-12 22 Sep 22:36:15 22:39:29 19° 109° (ESE) 22:42:45 437.025 FM, 437.400 FM
AO-40 22 Sep 22:46:12 00:46:01 34° 214° (SSW) 05:14:32 Beacon 2401.320
SO-50 22 Sep 22:58:07 23:01:33 21° 310° (NW) 23:05:03 436.795 FM
FUNcube-1 22 Sep 23:27:04 23:31:05 35° 263° (W) 23:35:14 145.950 - 145.970 MHz USB
Oscar 11 22 Sep 23:30:00 23:31:57 13° 268° (W) 23:33:54 145.825 FM, Beacon 2401.500 USB
ZACube-1 23 Sep 00:13:22 00:14:39 11° 269° (W) 00:15:55 437.345 MHz
UOSAT-12 23 Sep 00:14:58 00:19:18 39° 305° (NW) 00:23:43 437.025 FM, 437.400 FM
ISS 23 Sep 00:20:10 00:22:01 14° 127° (SE) 00:23:53 145.800 FM
PANSAT 23 Sep 00:35:01 00:38:06 23° 169° (SSE) 00:41:12 not established
Saudisat 1A 23 Sep 01:10:17 01:14:00 26° 53° (NE) 01:17:42 436.775 MHz
Oscar 16 23 Sep 01:55:06 01:59:17 24° 96° (E) 02:03:25 437.025 USB, Beacon 2401.1428
ISS 23 Sep 01:55:14 01:58:26 44° 322° (NW) 02:01:38 145.800 FM
PANSAT 23 Sep 02:14:28 02:17:52 30° 181° (S) 02:21:15 not established
JAS-1B 23 Sep 02:43:19 02:48:29 36° 99° (E) 02:53:51 435.800 - 435.900 CW/SSB
ITAMSAT 1 23 Sep 02:45:54 02:50:29 31° 97° (E) 02:55:04 435.822 SSB
Uribyol 2 23 Sep 02:49:00 02:53:47 36° 98° (E) 02:58:32 436.500 FM
Saudisat 1A 23 Sep 02:49:46 02:53:30 27° 248° (WSW) 02:57:13 436.775 MHz
Oscar 19 23 Sep 02:54:04 02:59:14 85° 284° (WNW) 03:04:22 437.125 CW, 437.150 USB
Gurwin Techsat 1B 23 Sep 02:56:54 03:00:32 18° 94° (E) 03:04:08 435.225 FM
KITSAT 1 23 Sep 03:15:08 03:21:42 26° 48° (NE) 03:28:13 435.175 FM
AO-Echo 23 Sep 03:16:10 03:21:06 79° 102° (ESE) 03:26:11 ?
AO-27 23 Sep 03:21:27 03:26:40 73° 102° (ESE) 03:31:53 436.795 MHz FM
TMSAT-1 23 Sep 03:30:42 03:35:17 29° 97° (E) 03:39:50 436.925 FM
Oscar 16 23 Sep 03:34:01 03:38:37 33° 290° (WNW) 03:43:11 437.025 USB, Beacon 2401.1428
RS-15 23 Sep 03:42:45 03:53:37 62° 112° (ESE) 04:04:15 29.354 - 29.394 USB, Beacon 29.352 USB
PANSAT 23 Sep 03:54:42 03:57:35 20° 194° (SSW) 04:00:27 not established
ITAMSAT 1 23 Sep 04:25:29 04:29:50 27° 292° (WNW) 04:34:11 435.822 SSB
Uribyol 2 23 Sep 04:28:53 04:33:01 24° 293° (WNW) 04:37:08 436.500 FM
Uosat F 23 Sep 04:31:10 04:34:20 17° 94° (E) 04:37:30 435.120 FM
JAS-1B 23 Sep 04:34:33 04:39:00 24° 293° (WNW) 04:43:34 435.800 - 435.900 CW/SSB
Gurwin Techsat 1B 23 Sep 04:35:37 04:40:40 46° 288° (WNW) 04:45:43 435.225 FM
OPAL 23 Sep 04:46:50 04:51:49 51° 71° (ENE) 04:56:52 ?
AO-Echo 23 Sep 04:58:34 04:59:14 10° 297° (WNW) 04:59:53 ?
AO-27 23 Sep 05:03:29 05:05:31 12° 298° (WNW) 05:07:32 436.795 MHz FM
KITSAT 1 23 Sep 05:09:42 05:17:43 69° 247° (WSW) 05:25:40 435.175 FM
TMSAT-1 23 Sep 05:10:33 05:15:06 30° 291° (WNW) 05:19:37 436.925 FM
AO-7 23 Sep 05:13:18 05:21:24 55° 103° (ESE) 05:29:27 29.400 - 29.500 MHz
SO-50 23 Sep 05:51:59 05:55:12 17° 48° (NE) 05:58:25 436.795 FM
RS-15 23 Sep 05:56:35 06:06:27 37° 314° (NW) 06:16:18 29.354 - 29.394 USB, Beacon 29.352 USB
Uosat F 23 Sep 06:08:31 06:13:19 46° 288° (WNW) 06:18:06 435.120 FM
JAS-2 23 Sep 06:17:01 06:22:52 36° 98° (E) 06:29:20 435.800 - 435.900 CW/SSB, 435.910 FM
Hamsat 23 Sep 06:20:03 06:23:27 23° 95° (E) 06:26:48 145.90 MHz
OPAL 23 Sep 06:27:42 06:30:55 17° 265° (W) 06:34:11 ?
MaSat-1 23 Sep 06:52:18 06:55:56 21° 103° (ESE) 06:59:35 437.345 MHz
AO-7 23 Sep 07:06:50 07:13:42 31° 299° (WNW) 07:20:35 29.400 - 29.500 MHz
STRAND 1 23 Sep 07:12:50 07:17:54 80° 75° (ENE) 07:23:01 ?
SO-50 23 Sep 07:31:21 07:36:05 56° 244° (WSW) 07:40:50 436.795 FM
Hamsat 23 Sep 07:55:56 07:59:17 23° 290° (WNW) 08:02:36 145.90 MHz
JAS-2 23 Sep 08:02:10 08:07:48 35° 290° (WNW) 08:14:02 435.800 - 435.900 CW/SSB, 435.910 FM
SO-67 23 Sep 08:16:15 08:19:42 82° 100° (E) 08:23:09 435.3500 MHz FM
RS-15 23 Sep 08:19:16 08:23:32 13° 346° (NNW) 08:27:49 29.354 - 29.394 USB, Beacon 29.352 USB
ISS 23 Sep 08:26:29 08:29:42 45° 39° (NE) 08:32:54 145.800 FM
MaSat-1 23 Sep 08:27:40 08:32:21 40° 297° (WNW) 08:36:59 437.345 MHz
UOSAT-12 23 Sep 08:47:20 08:52:03 72° 60° (ENE) 08:56:39 437.025 FM, 437.400 FM
HO-68 23 Sep 09:23:02 09:29:13 30° 97° (E) 09:35:21 435.675 MHz FM
Oscar 11 23 Sep 09:45:10 09:46:00 11° 91° (E) 09:46:50 145.825 FM, Beacon 2401.500 USB
UKube-1 23 Sep 10:03:31 10:07:08 25° 97° (E) 10:10:43 145.840 MHz, 145.915 MHz
ISS 23 Sep 10:04:21 10:06:06 14° 233° (SW) 10:07:51 145.800 FM
ZACube-1 23 Sep 10:27:44 10:30:18 15° 92° (E) 10:32:49 437.345 MHz
RS-15 23 Sep 10:36:29 10:42:56 17° 26° (NNE) 10:49:28 29.354 - 29.394 USB, Beacon 29.352 USB
Sapphire 23 Sep 10:59:16 11:03:59 32° 108° (ESE) 11:08:44 437.095 MHz 1200 baud AX-25 AFSK
HO-68 23 Sep 11:10:15 11:16:58 45° 292° (WNW) 11:23:41 435.675 MHz FM
Oscar 11 23 Sep 11:18:14 11:22:28 53° 285° (WNW) 11:26:39 145.825 FM, Beacon 2401.500 USB
FUNcube-1 23 Sep 11:19:04 11:23:37 58° 100° (E) 11:28:03 145.950 - 145.970 MHz USB
PCSat 23 Sep 11:25:07 11:30:25 62° 113° (ESE) 11:35:47 145.825 MHz
